Flag for U.S.A. Weather past 2 weeks in Los Angeles, California, U.S.A.

Now
76 °F

Sunny.


Feels Like: 77 °F
Forecast: 62 / 84 °F
Wind: 3 mph from North

Location: Los Angeles / USC Campus Downtown

Current Time: Oct 24, 2014 at 10:06:14 AM

Latest Report: Oct 24, 2014 at 9:47 AM


Visibility: 10 mi

Pressure: 29.98 "Hg

Humidity: 30%

Dew point: 42 °F

Location of Los AngelesLocation

Historic Weather in Los Angeles — Graph

°F

Los Angeles temperature yesterday

Maximum temperature yesterday: 84 °F (at 1:47 PM)
Minimum temperature yesterday: 61 °F (at 4:47 AM)
Average temperature yesterday: 71 °F

Past Weeks' High & Low Weather Summary

 TemperatureHumidityPressure
High84 °F (Oct 23, 1:47 PM)90% (Oct 11, 3:47 AM)30.01 "Hg (Oct 11, 3:47 AM)
Low60 °F (Oct 22, 6:47 AM)33% (Oct 22, 12:47 PM)29.82 "Hg (Oct 21, 5:47 PM)
Average69 °F71%29.92 "Hg
* Reported Oct 9 8:47 AM — Oct 24 8:47 AM, Los Angeles, Weather by CustomWeather, © 2014

Note: Actual official high and low records may vary slightly from our data, if they occured in-between our weather recording intervals... More about our weather records

Advertising

Los Angeles weather history for previous 24 hours

 ConditionsComfort  
Time TempWeatherWind HumidityBarometerVisibility
8:47 AM
Oct 24
68 °FSunny.No wind47%29.98 "Hg10 mi
7:47 AM61 °FClear.No wind60%29.97 "Hg10 mi
6:47 AM60 °FClear.No wind62%29.96 "Hg8 mi
5:47 AM60 °FClear.No wind67%29.94 "Hg10 mi
4:47 AM61 °FClear.No wind67%29.94 "Hg10 mi
3:47 AM61 °FClear.No wind81%29.94 "Hg10 mi
2:47 AM63 °FClear.No wind81%29.94 "Hg10 mi
1:47 AM63 °FClear.No wind81%29.96 "Hg10 mi
12:47 AM64 °FClear.No wind81%29.96 "Hg10 mi
11:47 PM
Oct 23
66 °FClear.No wind78%29.95 "Hg10 mi
10:47 PM67 °FClear.No wind79%29.94 "Hg10 mi
9:47 PM68 °FClear.No wind76%29.93 "Hg10 mi
8:47 PM69 °FClear.No wind66%29.92 "Hg10 mi
7:47 PM71 °FClear.No wind63%29.92 "Hg10 mi
6:47 PM73 °FSunny.No wind57%29.90 "Hg10 mi
5:47 PM77 °FSunny.3 mph52%29.89 "Hg10 mi
4:47 PM79 °FSunny.5 mph45%29.89 "Hg10 mi
3:47 PM81 °FSunny.No wind39%29.90 "Hg10 mi
2:47 PM84 °FSunny.No wind35%29.90 "Hg10 mi
1:47 PM84 °FSunny.3 mph38%29.92 "Hg10 mi
12:47 PM83 °FSunny.No wind38%29.94 "Hg7 mi
11:47 AM83 °FSunny.No wind37%29.97 "Hg5 mi
10:47 AM78 °FSunny.No wind43%29.98 "Hg6 mi
Weather by CustomWeather, © 2014

See weather overviewHow to use our weather pages